GW2229 Weather Reports


time (UTC)temp
C
wind
direction
speed
KPH
gust
KPH
rain 1hr
cm
rain 24hr
cm
rain mn
cm
humidity
%
barometer
mb
20260506210907 29 132 8.0 19.3 0.00 0.00 0.00 84 1007.3
20260506205907 29 116 6.4 14.5 0.00 0.00 0.00 84 1007.5
20260506205407 29 145 8.0 12.9 0.00 0.00 0.00 85 1007.4
20260506204907 29 143 9.7 22.5 0.00 0.00 0.00 85 1007.4
20260506204407 29 132 8.0 16.1 0.00 0.00 0.00 84 1007.6
20260506203907 29 145 8.0 14.5 0.00 0.00 0.00 85 1007.6
20260506202907 28 130 8.0 14.5 0.00 0.00 0.00 85 1007.7
20260506201907 28 146 4.8 12.9 0.00 0.00 0.00 86 1007.9
20260506201407 28 148 6.4 12.9 0.00 0.00 0.00 85 1007.9
20260506200907 28 141 8.0 14.5 0.00 0.00 0.00 86 1008.0
20260506200407 28 150 8.0 14.5 0.00 0.00 0.00 85 1008.2
20260506195907 28 139 8.0 14.5 0.00 0.00 0.00 86 1008.2
20260506195407 28 128 6.4 14.5 0.00 0.00 0.00 85 1008.2
20260506194907 28 141 4.8 14.5 0.00 0.00 0.00 86 1008.2
20260506194407 28 152 6.4 14.5 0.00 0.00 0.00 86 1008.2
20260506192907 28 125 8.0 12.9 0.00 0.00 0.00 87 1008.3
20260506191907 28 131 6.4 19.3 0.00 0.00 0.00 87 1008.3
20260506191407 28 137 9.7 16.1 0.00 0.00 0.00 87 1008.5
20260506185907 28 141 8.0 14.5 0.00 0.00 0.00 85 1008.8
20260506184906 28 158 8.0 16.1 0.00 0.00 0.00 85 1008.8
20260506184406 28 141 6.4 14.5 0.00 0.00 0.00 85 1008.8
20260506183407 28 140 6.4 14.5 0.00 0.00 0.00 84 1008.8
20260506182907 29 143 6.4 12.9 0.00 0.00 0.00 83 1008.9
20260506182407 29 120 6.4 14.5 0.00 0.00 0.00 83 1008.9
20260506180906 29 135 8.0 14.5 0.00 0.00 0.00 83 1008.9
20260506180406 29 129 8.0 12.9 0.00 0.00 0.00 83 1008.8
20260506175907 29 136 8.0 14.5 0.00 0.00 0.00 84 1008.7
20260506175406 29 160 6.4 12.9 0.00 0.00 0.00 84 1008.7
20260506174906 28 138 8.0 16.1 0.00 0.00 0.00 86 1008.8
20260506174406 28 139 4.8 12.9 0.00 0.00 0.00 89 1008.9
20260506173907 28 161 3.2 4.8 0.00 0.00 0.00 89 1009.0
20260506173406 27 148 3.2 4.8 0.00 0.00 0.00 92 1008.9
20260506172906 27 148 3.2 11.3 0.00 0.00 0.00 93 1008.9
20260506172407 27 170 3.2 8.0 0.00 0.00 0.00 93 1009.1
20260506171906 26 148 3.2 4.8 0.00 0.00 0.00 93 1009.1
20260506171407 26 174 3.2 12.9 0.00 0.00 0.00 93 1009.2
20260506170906 26 143 3.2 9.7 0.00 0.00 0.00 94 1009.1
20260506170406 26 171 4.8 14.5 0.00 0.00 0.00 94 1009.1
20260506165907 26 160 3.2 12.9 0.00 0.00 0.00 95 1009.0
20260506165406 26 173 3.2 8.0 0.00 0.00 0.00 95 1009.0
20260506164406 26 149 4.8 12.9 0.00 0.00 0.00 95 1008.9
20260506163907 26 144 4.8 11.3 0.00 0.00 0.00 95 1009.0
20260506163406 26 158 4.8 16.1 0.00 0.00 0.00 95 1008.9
20260506162907 26 159 3.2 14.5 0.00 0.00 0.00 95 1008.9
20260506161907 26 139 4.8 8.0 0.00 0.00 0.00 95 1008.8
20260506161406 26 150 8.0 9.7 0.00 0.00 0.00 95 1008.8
20260506160906 26 140 4.8 14.5 0.00 0.00 0.00 95 1008.7
20260506160406 26 135 4.8 11.3 0.00 0.00 0.00 95 1008.7
20260506155406 26 144 6.4 12.9 0.00 0.00 0.00 95 1008.5
20260506154907 26 136 4.8 12.9 0.00 0.00 0.00 95 1008.4
20260506153907 26 135 6.4 11.3 0.00 0.00 0.00 94 1008.4
20260506153406 26 155 6.4 14.5 0.00 0.00 0.00 94 1008.3
20260506152906 26 156 4.8 11.3 0.00 0.00 0.00 94 1008.2
20260506152407 26 141 4.8 9.7 0.00 0.00 0.00 94 1008.1
20260506151907 26 148 6.4 12.9 0.00 0.00 0.00 94 1008.1
20260506151406 26 136 4.8 12.9 0.00 0.00 0.00 94 1008.1
20260506150906 26 169 4.8 19.3 0.00 0.00 0.00 94 1008.2
20260506150406 26 143 9.7 19.3 0.00 0.00 0.00 93 1008.2
20260506145906 26 141 8.0 20.9 0.00 0.00 0.00 93 1008.2
20260506145406 26 143 9.7 16.1 0.00 0.00 0.00 93 1008.1
20260506144906 26 141 4.8 19.3 0.00 0.00 0.00 93 1008.3
20260506144406 26 141 6.4 19.3 0.00 0.00 0.00 93 1008.2
20260506143406 26 141 8.0 16.1 0.00 0.00 0.00 93 1008.2
20260506142406 26 140 6.4 11.3 0.00 0.00 0.00 94 1008.2
20260506141906 26 142 8.0 12.9 0.00 0.00 0.00 93 1008.2
20260506141406 26 144 8.0 14.5 0.00 0.00 0.00 93 1008.4
20260506140907 26 139 9.7 16.1 0.00 0.00 0.00 94 1008.2
20260506140406 26 139 9.7 19.3 0.00 0.00 0.00 94 1008.1
20260506135906 26 140 4.8 16.1 0.00 0.00 0.00 94 1008.0
20260506134907 26 137 11.3 19.3 0.00 0.00 0.00 94 1008.0
20260506134406 25 145 9.7 19.3 0.00 0.00 0.00 94 1007.9
20260506133907 25 140 9.7 16.1 0.00 0.00 0.00 95 1007.9
20260506133406 25 149 8.0 14.5 0.00 0.00 0.00 95 1008.0
20260506132906 25 136 9.7 19.3 0.00 0.00 0.00 95 1007.9
20260506132405 25 147 6.4 19.3 0.00 0.00 0.00 95 1008.0
20260506131906 25 135 8.0 14.5 0.00 0.00 0.00 95 1008.0
20260506131405 25 146 6.4 12.9 0.00 0.00 0.00 95 1007.8
20260506130406 25 139 4.8 11.3 0.00 0.00 0.00 95 1007.9
20260506125906 25 138 3.2 9.7 0.00 0.00 0.00 95 1007.9
20260506125405 25 143 8.0 12.9 0.00 0.00 0.00 95 1007.8
20260506124906 25 140 4.8 11.3 0.00 0.00 0.00 95 1007.9
20260506124406 25 140 6.4 12.9 0.00 0.00 0.00 95 1007.8
20260506123906 25 137 4.8 16.1 0.00 0.00 0.00 95 1007.8
20260506122906 25 140 4.8 11.3 0.00 0.00 0.00 95 1007.7
20260506121406 25 137 4.8 12.9 0.00 0.00 0.00 95 1007.6
20260506120405 25 143 4.8 8.0 0.00 0.00 0.00 95 1007.6
20260506115906 25 145 6.4 12.9 0.00 0.00 0.00 95 1007.4
20260506115407 25 143 4.8 12.9 0.00 0.00 0.00 95 1007.5
20260506114405 25 129 8.0 14.5 0.00 0.00 0.00 94 1007.5
20260506113906 25 154 3.2 4.8 0.00 0.00 0.00 94 1007.5
20260506113405 25 154 3.2 8.0 0.00 0.00 0.00 94 1007.5
20260506112906 25 123 1.6 8.0 0.00 0.00 0.00 94 1007.3
20260506112406 25 145 4.8 11.3 0.00 0.00 0.00 94 1007.3
20260506111905 25 121 1.6 8.0 0.00 0.00 0.00 94 1007.4
20260506111405 25 126 3.2 8.0 0.00 0.00 0.00 94 1007.4
20260506110906 25 148 3.2 9.7 0.00 0.00 0.00 94 1007.3
20260506110406 25 140 3.2 8.0 0.00 0.00 0.00 94 1007.4
20260506105906 25 141 3.2 11.3 0.00 0.00 0.00 94 1007.3
20260506105405 25 141 3.2 11.3 0.00 0.00 0.00 94 1007.3
20260506104906 25 143 3.2 11.3 0.00 0.00 0.00 94 1007.3
20260506103906 25 149 3.2 8.0 0.00 0.00 0.00 94 1007.5
20260506103405 25 159 3.2 4.8 0.00 0.00 0.00 94 1007.5
20260506102905 25 159 3.2 8.0 0.00 0.00 0.00 94 1007.5
20260506102405 25 142 3.2 12.9 0.00 0.00 0.00 94 1007.4
20260506101906 25 138 4.8 12.9 0.00 0.00 0.00 93 1007.3
20260506101406 25 152 3.2 8.0 0.00 0.00 0.00 93 1007.4
20260506100906 25 132 4.8 8.0 0.00 0.00 0.00 93 1007.4
20260506100405 25 145 4.8 11.3 0.00 0.00 0.00 93 1007.3
20260506095906 25 135 3.2 4.8 0.00 0.00 0.00 93 1007.4
20260506095406 25 151 3.2 8.0 0.00 0.00 0.00 93 1007.2
20260506094905 25 135 4.8 11.3 0.00 0.00 0.00 93 1007.1
20260506093905 25 132 3.2 8.0 0.00 0.00 0.00 93 1007.1
20260506093406 25 138 4.8 11.3 0.00 0.00 0.00 93 1007.1
20260506092906 25 159 4.8 9.7 0.00 0.00 0.00 93 1007.1
20260506091905 25 148 8.0 14.5 0.00 0.00 0.00 93 1007.1
20260506090906 25 138 6.4 14.5 0.00 0.00 0.00 93 1006.9
20260506090405 25 154 8.0 14.5 0.00 0.00 0.00 93 1006.9
20260506085905 25 139 4.8 12.9 0.00 0.00 0.00 93 1006.9
20260506085406 25 141 8.0 19.3 0.00 0.00 0.00 93 1006.9
20260506084905 25 153 4.8 14.5 0.00 0.00 0.00 93 1006.9
20260506083905 25 153 8.0 16.1 0.00 0.00 0.00 93 1007.0
20260506082405 25 138 6.4 16.1 0.00 0.00 0.00 93 1007.0
20260506081905 25 138 9.7 19.3 0.00 0.00 0.00 93 1007.0
20260506081405 25 154 6.4 19.3 0.00 0.00 0.00 93 1006.9
20260506080906 25 142 8.0 14.5 0.00 0.00 0.00 93 1006.8
20260506080405 25 144 8.0 19.3 0.00 0.00 0.00 93 1006.7
20260506072905 25 149 8.0 16.1 0.00 0.00 0.00 93 1007.1
20260506071905 25 138 9.7 16.1 0.00 0.00 0.00 93 1007.2
20260506071405 25 138 8.0 19.3 0.00 0.00 0.00 93 1007.3
20260506070905 25 152 6.4 12.9 0.00 0.00 0.00 93 1007.5
20260506070405 25 149 8.0 14.5 0.00 0.00 0.00 93 1007.6
20260506062405 25 152 8.0 14.5 0.00 0.00 0.00 93 1007.9
20260506061905 25 143 8.0 19.3 0.00 0.00 0.00 93 1008.1
20260506061405 25 143 6.4 19.3 0.00 0.00 0.00 93 1008.1
20260506060905 25 154 4.8 12.9 0.00 0.00 0.00 93 1008.0
20260506060405 25 151 8.0 14.5 0.00 0.00 0.00 93 1008.1
20260506051405 25 143 8.0 16.1 0.00 0.00 0.00 93 1008.1
20260506050405 25 140 8.0 19.3 0.00 0.00 0.00 93 1008.1
20260506044905 25 152 8.0 16.1 0.00 0.00 0.00 93 1008.1
20260506044404 25 140 9.7 19.3 0.00 0.00 0.00 93 1008.0
20260506043905 25 142 9.7 19.3 0.00 0.00 0.00 93 1008.0
20260506043404 25 150 9.7 19.3 0.00 0.00 0.00 93 1008.1
20260506042404 25 140 11.3 19.3 0.00 0.00 0.00 93 1008.0
20260506041904 25 149 12.9 20.9 0.00 0.00 0.00 93 1007.9
20260506041404 25 147 11.3 19.3 0.00 0.00 0.00 93 1008.0
20260506040905 25 155 9.7 19.3 0.00 0.00 0.00 93 1008.1
20260506040405 25 141 8.0 16.1 0.00 0.00 0.00 93 1008.1
20260506035905 25 145 11.3 19.3 0.00 0.00 0.00 93 1008.0
20260506035404 25 141 9.7 19.3 0.00 0.00 0.00 93 1007.9
20260506034905 25 146 9.7 19.3 0.00 0.00 0.00 93 1007.9
20260506034405 25 146 11.3 20.9 0.00 0.00 0.00 94 1007.7
20260506033904 25 145 9.7 22.5 0.00 0.00 0.00 94 1007.7
20260506033405 25 143 11.3 22.5 0.00 0.00 0.00 93 1007.6
20260506032904 25 134 11.3 22.5 0.00 0.00 0.00 93 1007.4
20260506032405 25 138 9.7 19.3 0.00 0.00 0.00 93 1007.4
20260506030905 25 145 11.3 20.9 0.00 0.00 0.00 93 1007.3
20260506030404 25 139 11.3 20.9 0.00 0.00 0.00 93 1007.3
20260506025904 25 141 12.9 32.2 0.00 0.00 0.00 93 1007.2
20260506025404 25 140 11.3 20.9 0.00 0.00 0.00 93 1007.1
20260506024904 25 145 11.3 19.3 0.00 0.00 0.00 93 1007.1
20260506024405 25 147 11.3 29.0 0.00 0.00 0.00 93 1007.1
20260506023905 25 150 9.7 19.3 0.00 0.00 0.00 93 1007.0
20260506023405 25 152 14.5 27.4 0.00 0.00 0.00 93 1006.9
20260506022904 25 131 12.9 25.7 0.00 0.00 0.00 93 1006.9
20260506021904 25 144 11.3 20.9 0.00 0.00 0.00 93 1006.9
20260506021405 25 142 11.3 20.9 0.00 0.00 0.00 92 1006.7
20260506020904 25 138 14.5 22.5 0.00 0.00 0.00 92 1006.7
20260506020404 25 140 14.5 24.1 0.00 0.00 0.00 92 1006.7
20260506015906 25 138 16.1 25.7 0.00 0.00 0.00 92 1006.6
20260506015404 25 135 16.1 24.1 0.00 0.00 0.00 92 1006.6
20260506014905 25 144 14.5 24.1 0.00 0.00 0.00 92 1006.5
20260506013904 25 144 11.3 22.5 0.00 0.00 0.00 92 1006.5
20260506013404 25 137 12.9 25.7 0.00 0.00 0.00 92 1006.3
20260506012904 25 147 9.7 22.5 0.00 0.00 0.00 92 1006.4
20260506011404 25 156 12.9 29.0 0.00 0.00 0.00 92 1006.1
20260506010904 25 145 17.7 33.8 0.00 0.00 0.00 91 1006.0
20260506010405 25 143 11.3 29.0 0.00 0.00 0.00 91 1006.1
20260506005904 26 139 16.1 25.7 0.00 0.00 0.00 91 1005.9
20260506005404 26 145 11.3 24.1 0.00 0.00 0.00 91 1006.0
20260506004905 26 155 12.9 25.7 0.00 0.00 0.00 91 1005.9
20260506004404 26 147 14.5 32.2 0.00 0.00 0.00 90 1005.9
20260506003904 26 140 12.9 25.7 0.00 0.00 0.00 90 1006.0
20260506003404 26 152 12.9 25.7 0.00 0.00 0.00 90 1005.9
20260506002904 26 155 14.5 22.5 0.00 0.00 0.00 90 1005.9
20260506002404 26 148 9.7 22.5 0.00 0.00 0.00 90 1005.9
20260506001904 26 142 14.5 25.7 0.00 0.00 0.00 90 1005.8
20260506001404 26 144 16.1 25.7 0.00 0.00 0.00 89 1005.8
20260505235406 26 141 12.9 24.1 0.00 0.00 0.00 89 1005.8
20260505234907 26 136 14.5 25.7 0.00 0.00 0.00 88 1005.8
20260505234407 26 138 14.5 27.4 0.00 0.00 0.00 88 1005.8
20260505233907 26 146 8.0 16.1 0.00 0.00 0.00 88 1005.7
20260505233407 27 163 14.5 25.7 0.00 0.00 0.00 87 1005.7
20260505232907 27 155 16.1 27.4 0.00 0.00 0.00 87 1005.7
20260505232408 27 144 14.5 25.7 0.00 0.00 0.00 87 1005.7
20260505231907 27 140 20.9 35.4 0.00 0.00 0.00 86 1005.6
20260505231407 27 149 16.1 32.2 0.00 0.00 0.00 86 1005.7
20260505230907 27 149 16.1 25.7 0.00 0.00 0.00 86 1005.6
20260505225907 27 155 14.5 29.0 0.00 0.00 0.00 84 1005.6
20260505225408 28 144 11.3 25.7 0.00 0.00 0.00 84 1005.6
20260505224907 27 146 14.5 24.1 0.00 0.00 0.00 85 1005.6
20260505224407 27 138 11.3 25.7 0.00 0.00 0.00 85 1005.7
20260505223907 27 145 14.5 29.0 0.00 0.00 0.00 85 1005.7
20260505222908 28 139 16.1 33.8 0.00 0.00 0.00 83 1005.8
20260505222407 28 136 16.1 33.8 0.00 0.00 0.00 83 1005.9
20260505221907 28 143 11.3 24.1 0.00 0.00 0.00 82 1005.9
20260505221407 28 136 16.1 32.2 0.00 0.00 0.00 82 1005.9
20260505220908 28 149 16.1 32.2 0.00 0.00 0.00 82 1006.0
20260505220408 28 155 14.5 29.0 0.00 0.00 0.00 82 1006.0
20260505215907 28 151 14.5 24.1 0.00 0.00 0.00 82 1006.0
20260505215407 28 144 14.5 27.4 0.00 0.00 0.00 82 1006.1
20260505214907 28 135 14.5 33.8 0.00 0.00 0.00 82 1006.2
20260505214407 28 160 11.3 22.5 0.00 0.00 0.00 83 1006.2
20260505213907 28 145 14.5 24.1 0.00 0.00 0.00 82 1006.1
20260505212907 28 146 14.5 25.7 0.00 0.00 0.00 82 1006.3
20260505212407 28 133 17.7 32.2 0.00 0.00 0.00 82 1006.5
20260505211907 28 140 19.3 29.0 0.00 0.00 0.00 82 1006.5